RH
66 66 75 70 70 74 84 90 87 89 87 74 78 82 88 86 88 88 87 86 73 69 73 80 75 59 53 48 45 56 68 78 77 73 73 75 77 76 73 71 71 68 62 57
69 58 57 64 58 54 70 86 88 88 82 80 73 85 85 80 87 88 84 69 63 61 65 68 76 75 57 51 48 48 59 71 77 72 66 64 66 69 73 75 76 73 71 69
71 54 51 55 86 68 67 76 85 71 75 80 84 83 84 79 71 71 68 67 62 55 56 55 62 69 65 55 52 49 52 64 72 72 71 69 67 68 70 72 74 76 78 77
52 46 71 85 46 53 67 77 72 73 76 79 86 89 78 66 63 65 68 70 60 52 50 52 58 61 60 61 63 53 52 57 64 69 71 71 70 69 68 69 72 74 76 77
54 61 69 65 69 65 66 78 69 74 81 86 84 84 75 53 54 52 56 62 55 51 51 55 55 58 60 59 65 70 74 64 63 62 60 62 66 68 68 69 72 70 70 74
63 70 71 78 58 50 52 78 78 72 72 77 72 72 45 48 47 49 56 49 50 53 56 54 51 58 57 51 55 56 61 73 82 68 62 59 58 56 58 62 66 70 67 67
64 73 74 59 58 51 69 89 71 62 66 74 76 67 60 57 51 47 44 46 52 55 52 48 54 58 55 54 54 58 64 69 70 80 82 69 68 67 66 64 66 60 59 56
67 73 80 55 57 66 74 59 50 55 63 68 68 63 61 60 62 54 51 54 57 57 55 54 57 58 54 54 57 68 70 70 71 74 79 81 89 71 73 78 83 86 89 86
78 67 61 60 71 79 80 79 65 80 74 78 82 74 67 65 66 72 69 61 54 54 51 53 57 59 58 55 65 69 72 71 73 75 76 77 85 97 93 94 94 89 83 82
87 81 75 77 82 88 74 78 84 82 84 78 84 73 73 70 73 70 71 76 75 74 63 55 56 62 63 66 71 72 72 73 75 76 73 75 85 76 78 79 82 82 82 79
73 79 73 78 67 75 77 84 89 80 80 86 90 89 87 88 85 86 88 90 97 92 78 64 61 65 68 76 77 79 78 77 77 76 73 72 74 75 77 84 90 89 87 87
78 83 91 83 78 76 91 88 88 89 90 86 88 92 90 90 89 92 94 96 99 98 90 79 78 76 76 84 85 86 82 76 75 75 76 79 77 74 78 89 88 83 79 78
83 90 91 80 78 70 88 89 90 89 87 94 89 93 92 93 91 96 93 100 97 95 92 76 76 79 85 87 92 94 90 82 82 87 79 81 77 77 72 68 79 85 86 83
82 85 74 76 92 85 88 86 88 90 90 90 90 97 96 96 96 99 98 94 99 96 90 82 85 84 81 81 85 93 98 96 87 83 85 83 82 82 77 71 67 66 71 84
85 86 91 85 82 79 78 79 85 84 80 82 83 87 88 93 94 95 94 93 93 90 83 86 88 80 79 80 85 86 87 96 98 97 91 89 88 85 74 71 73 74 76 77
92 87 83 83 80 79 73 79 86 84 77 79 75 76 84 88 93 96 96 96 92 90 82 84 84 76 78 81 83 79 74 94 99 100 95 89 88 87 76 79 82 81 78 77
97 90 85 81 77 71 68 64 68 70 72 74 78 81 81 82 83 83 93 100 97 88 86 86 82 82 80 82 84 86 89 94 95 93 89 94 94 85 86 88 88 87 86 88
83 73 69 70 72 71 70 71 73 76 82 86 86 84 82 83 85 84 90 97 100 100 93 80 79 79 79 85 86 78 94 100 100 100 98 99 92 97 95 96 92 90 87 89
70 69 69 70 70 75 73 77 81 85 85 91 90 86 87 86 88 89 92 93 92 90 80 80 84 92 98 91 93 88 100 100 98 100 100 93 96 85 92 93 92 90 91 91
72 73 75 74 79 77 82 86 93 90 88 95 90 81 80 85 90 91 92 90 93 96 100 100 100 92 92 92 92 98 99 94 91 99 97 88 84 77 79 82 84 89 92 93
78 83 82 84 86 82 86 93 100 95 93 91 92 90 91 90 92 93 85 82 92 97 98 100 98 97 98 97 94 98 97 100 100 100 92 82 80 77 79 81 83 86 92 94
91 92 94 92 89 89 90 96 95 93 90 92 91 91 89 82 86 88 94 96 99 98 97 97 96 96 92 93 91 88 96 100 100 100 96 85 85 87 90 92 96 96 99 100
95 94 95 99 99 97 95 85 98 95 95 94 93 93 93 92 94 86 77 90 96 88 84 87 97 95 99 94 100 100 100 100 100 91 80 84 98 100 100 100 100 100 100 100
95 96 100 97 97 88 87 86 94 85 93 95 94 99 99 89 79 93 97 94 97 90 93 92 95 92 81 71 75 78 83 89 95 96 96 100 100 100 100 100 100 100 100 100
98 100 99 94 87 85 86 90 85 83 90 88 87 85 99 99 99 97 100 98 94 98 93 99 95 99 95 93 100 100 100 100 93 100 100 100 100 100 100 100 98 100 100 100
99 99 95 94 91 91 88 90 86 86 92 90 82 90 98 99 100 100 100 97 98 100 100 100 99 99 100 100 100 100 98 97 97 90 98 100 100 100 96 92 92 95 96 96
92 97 91 86 87 92 93 98 94 92 98 100 93 100 100 100 100 99 100 100 100 100 100 100 99 100 100 100 98 97 96 96 99 100 100 100 98 96 95 95 94 93 93 95
Wind_Speed
2 1 1 5 8 8 5 2 4 4 3 2 8 6 4 4 5 7 6 6 5 4 4 3 4 6 7 8 8 8 6 3 3 2 2 1 1 1 1 1 2 2 3 3
2 3 2 8 10 7 5 2 1 3 2 3 3 4 4 4 5 6 7 7 6 6 5 3 2 3 5 6 7 7 5 5 3 2 1 1 1 1 1 1 2 2 3 4
2 2 4 3 10 10 5 4 4 7 7 3 4 6 6 5 6 6 7 8 7 6 4 2 0 2 3 5 6 6 5 3 2 2 2 2 2 2 2 2 2 3 4 5
1 2 2 3 9 4 14 13 10 9 8 4 2 1 3 4 5 7 7 8 9 8 6 4 3 3 4 5 5 5 5 5 5 5 5 4 4 4 4 4 4 4 5 5
1 5 4 4 7 5 5 9 15 15 12 3 5 4 9 8 8 6 8 10 9 8 6 5 5 5 4 5 5 5 4 5 6 7 9 9 9 9 9 8 8 8 8 8
1 2 1 4 9 7 4 3 13 15 14 13 9 5 1 10 6 8 8 9 9 8 7 6 6 5 5 6 6 6 5 6 6 8 9 9 10 12 11 11 12 12 13 13
4 2 2 5 12 4 2 7 14 14 13 11 8 8 15 16 13 10 10 9 7 8 9 9 7 6 8 8 8 7 7 7 7 7 9 9 9 9 10 11 12 14 16 17
1 0 2 13 3 3 4 8 14 13 11 14 15 17 16 15 12 12 11 11 11 12 11 10 9 9 10 10 8 7 7 8 9 8 8 8 9 9 9 10 10 11 12 13
2 2 3 5 6 8 5 9 14 14 14 14 16 15 15 15 15 18 17 16 13 14 13 12 11 11 12 10 8 8 9 9 9 10 9 8 8 8 8 7 8 9 10 11
4 2 7 8 2 4 13 12 11 9 13 13 15 18 19 16 17 20 20 18 16 14 15 14 12 12 13 10 9 9 10 10 9 10 10 9 8 8 9 9 9 9 10 11
4 6 11 4 13 15 17 11 8 16 15 15 13 15 15 14 18 19 19 16 14 14 15 15 11 12 12 11 10 11 11 10 10 10 10 10 10 10 10 11 11 12 12 13
5 9 7 15 17 18 9 15 15 14 14 18 18 15 20 18 21 19 16 14 12 13 13 14 12 13 12 11 11 11 11 11 10 9 9 9 9 10 11 13 14 16 18 19
7 13 12 15 12 18 14 16 21 20 22 14 22 19 20 20 20 19 17 13 16 16 16 17 15 15 14 12 11 12 12 11 9 10 9 9 9 9 11 11 11 13 14 16
6 13 9 6 13 20 19 21 22 22 20 20 21 22 19 19 18 14 15 19 17 17 18 17 16 17 14 13 13 14 12 12 11 10 9 9 9 9 9 11 14 14 11 12
12 14 13 16 15 15 19 20 16 14 19 20 22 21 21 18 15 18 21 18 13 13 15 15 16 18 13 13 14 15 13 12 11 10 9 9 9 9 11 11 12 14 14 13
13 12 10 11 13 14 17 16 14 14 20 22 23 23 22 21 21 18 18 13 10 10 13 13 15 14 11 12 13 13 14 15 13 11 10 9 10 10 10 10 11 12 13 13
12 14 15 15 16 17 18 22 21 22 24 24 24 25 22 21 19 16 13 8 9 11 10 10 12 11 10 12 14 12 10 10 13 11 11 10 10 9 9 10 10 10 12 11
12 14 15 17 15 15 18 22 22 23 23 25 24 23 19 17 15 14 11 7 6 8 9 10 10 10 10 12 13 12 10 10 9 10 9 9 7 6 8 8 9 10 11 12
14 15 16 17 18 19 21 20 21 23 24 25 23 20 18 15 14 12 10 8 7 7 5 4 4 7 9 10 11 12 10 10 9 8 7 6 6 4 4 5 7 9 10 11
14 15 16 17 18 19 20 20 21 22 23 24 23 19 17 15 13 12 10 9 8 8 8 7 6 5 6 8 10 11 11 10 9 9 7 5 4 5 6 7 8 9 9 10
14 15 16 17 18 21 19 19 20 21 22 21 20 20 18 15 13 12 10 9 9 8 9 5 4 5 6 7 8 6 7 7 8 8 7 5 6 7 8 8 10 10 10 11
13 14 16 16 18 20 20 21 19 20 20 20 19 19 18 15 14 12 9 8 12 13 6 6 6 7 10 10 11 10 8 7 6 5 5 5 6 7 8 9 9 10 10 11
13 14 15 15 18 18 19 19 20 19 19 18 18 19 18 15 12 12 12 16 15 10 7 9 11 10 14 12 9 5 5 4 3 4 6 7 7 7 8 9 9 10 11 10
14 15 15 15 16 16 19 22 21 19 17 16 16 16 15 15 12 14 12 13 13 11 10 12 12 10 10 7 5 3 1 2 3 5 6 7 8 9 8 9 10 9 10 10
14 15 14 16 15 16 20 20 19 19 18 18 16 15 14 13 11 12 11 12 12 12 10 10 10 9 8 7 5 3 4 6 7 7 7 8 9 8 8 9 10 10 10 11
13 13 12 12 13 16 19 18 17 17 17 17 17 15 14 13 12 10 11 11 10 10 10 10 10 9 8 8 6 8 8 9 8 9 9 9 9 10 11 12 12 11 11 11
11 14 14 14 14 15 18 15 16 17 18 15 12 14 15 15 12 10 10 10 10 10 10 11 11 10 9 9 10 9 10 10 10 9 10 11 12 12 12 11 11 11 11 11
Wind_Direction
59 80 98 47 30 26 45 354 343 5 300 233 191 172 153 146 151 144 158 170 163 148 125 90 68 53 43 37 30 33 40 68 66 63 70 91 140 159 165 189 210 219 235 250
88 119 82 65 33 34 51 24 281 292 349 338 174 144 152 169 190 189 194 198 179 164 160 140 83 36 16 13 13 17 21 36 48 74 72 41 14 334 291 274 279 265 255 253
100 17 163 47 2 22 50 23 319 5 338 312 182 191 181 194 216 220 214 205 195 189 185 179 209 329 333 336 343 344 342 343 5 22 11 11 12 354 334 317 299 290 286 279
45 258 112 81 24 47 81 42 23 348 343 201 325 286 273 255 238 225 212 201 194 195 200 219 239 273 293 303 309 312 309 302 301 302 304 307 310 317 319 314 308 303 295 289
12 56 117 55 10 350 354 49 22 17 23 351 348 292 257 245 229 248 213 202 199 201 207 211 232 247 264 277 283 289 288 287 287 294 294 292 292 293 292 291 289 288 289 291
46 90 112 3 328 323 254 138 15 7 6 360 338 284 345 7 293 245 218 208 208 209 214 225 237 240 258 272 276 276 280 285 289 293 291 289 289 289 287 285 282 282 281 280
35 86 134 351 325 329 232 7 344 346 337 332 323 307 309 310 301 274 259 240 228 221 230 238 232 237 254 263 266 272 276 278 284 284 288 295 289 286 286 285 283 285 284 281
277 205 178 1 335 71 31 343 332 326 321 305 304 306 303 301 298 275 256 248 239 236 238 238 233 234 248 253 261 260 264 274 278 279 282 282 281 287 287 286 289 290 289 288
318 38 58 354 75 68 27 324 331 320 321 312 304 299 304 303 297 290 284 264 246 240 246 242 237 236 248 254 250 252 260 267 271 276 277 275 275 281 284 279 279 284 284 286
314 120 321 328 49 351 340 327 325 318 313 306 297 296 296 297 292 286 278 265 253 249 249 248 240 238 245 247 248 252 256 261 264 267 271 269 265 265 270 274 273 276 280 283
274 18 331 171 346 342 327 324 309 319 308 295 290 288 289 290 289 285 278 265 253 245 248 252 246 245 243 240 242 246 251 255 257 258 261 261 263 263 265 270 266 273 275 280
302 314 288 295 326 331 332 325 321 310 300 298 300 292 289 288 284 279 275 269 249 248 249 254 250 247 244 239 234 238 245 249 248 248 253 257 267 278 272 271 275 271 273 274
290 324 318 300 319 327 317 309 303 308 310 301 302 294 297 293 289 282 280 263 259 256 257 258 254 249 242 239 233 233 238 243 246 249 250 254 264 275 292 297 289 282 277 276
345 339 309 328 315 315 308 310 311 305 300 300 302 300 298 295 291 288 280 279 275 267 257 252 248 247 243 241 237 234 238 241 243 246 247 253 259 271 283 294 303 304 296 291
336 323 295 303 309 320 322 322 321 319 319 318 318 312 309 307 293 290 299 298 280 260 251 242 239 247 246 242 236 235 240 239 237 243 253 255 258 265 279 284 286 292 299 300
315 307 317 325 327 328 330 328 325 323 325 324 324 322 316 309 304 296 296 289 256 249 254 242 242 248 252 236 229 234 243 238 238 243 255 258 252 268 277 280 284 288 288 290
327 335 333 333 334 333 333 331 329 327 327 326 326 324 319 316 313 310 306 294 270 268 265 251 252 258 243 235 229 235 241 234 228 240 247 247 256 266 274 280 285 292 294 291
325 323 328 328 328 333 331 333 332 332 331 328 326 326 325 323 320 320 322 319 298 287 280 274 266 255 241 234 229 241 232 227 228 242 239 235 248 258 274 274 281 293 301 305
337 332 334 333 337 332 332 331 332 330 332 333 333 333 331 327 328 326 323 317 306 300 312 302 273 249 240 237 233 230 224 225 232 230 230 234 239 261 279 290 293 297 302 306
335 336 335 334 335 337 332 332 332 332 334 335 338 343 344 345 341 336 334 324 316 305 300 294 280 257 239 233 232 218 216 229 232 226 223 230 250 278 289 297 301 305 308 308
336 336 334 335 333 335 333 331 332 334 334 337 340 343 344 343 346 346 347 347 346 327 317 313 293 265 243 235 235 225 224 225 218 214 213 239 274 286 294 298 299 298 300 302
334 332 331 335 337 334 337 335 337 340 343 345 348 350 349 354 355 355 353 340 330 331 340 329 307 276 266 230 230 223 219 208 203 210 232 259 274 284 292 298 300 298 296 299
334 334 332 337 335 329 335 345 344 345 346 347 350 351 351 352 356 357 351 344 344 54 34 348 334 65 53 75 76 102 149 174 207 247 268 277 276 279 286 290 296 295 297 301
339 337 334 339 337 344 346 345 343 343 343 348 354 354 355 354 0 5 356 355 18 21 7 355 24 41 34 32 26 9 311 273 274 280 276 274 270 280 283 287 289 293 295 299
339 333 339 345 347 348 345 343 342 346 345 347 348 351 353 356 354 357 360 357 357 5 7 4 1 12 7 357 346 332 308 298 298 294 282 282 281 274 277 286 290 293 297 294
342 339 345 344 343 345 346 347 347 345 348 345 347 347 346 346 348 360 3 10 17 12 11 5 357 347 345 343 327 317 308 302 293 286 286 279 276 279 282 285 286 290 290 294
349 357 356 354 355 351 348 351 349 340 338 339 354 358 357 357 355 2 7 9 8 4 1 358 358 353 340 333 327 321 310 302 296 290 287 280 283 283 283 281 279 286 289 291